星链-35325(STARLINK-35325)

导读 | 豆包AI

STARLINK-35325是美国于北京时间2025年10月19日发射的星链卫星,星链计划是SpaceX打造的大型卫星互联网项目,旨在为全球提供高速低延迟互联网服务。该卫星属于星链星座组网的组成部分,发射后将进入预定轨道,助力完善全球卫星互联网覆盖,进一步推进星链系统的部署进程。

基本信息
目录编号:
66080
目录名称:
STARLINK-35325
国际标识:
2025-235Y
轨道中心:
EARTH
卫星名称:
星链-35325
卫星全名:
星链-35325(STARLINK-35325)
卫星状态:
在轨 (已飞行146 天)
发射日期:
2025-10-19 UTC
国别 :
美国 (US)
星等 :
--
轨道信息
数据来源 国际轨道数据 AOE轨道数据
星历时间 2026-03-14T03:34:25+0800
12小时前
查看轨道信息
2026-03-14T09:00:00+0800
6小时前
查看轨道信息
半长轴 6853.296km 6853.347km
偏心率 0.0000564 0.0001362
轨道倾角 53.160° 53.161°
近地点辐角 40.190° 73.347°
升交点赤经 226.067° 225.020°
平近点角 319.914° 92.995°
近地点 474.772km 474.276km
远地点 475.546km 476.144km
周期 94.104分钟 94.105分钟
每日圈数 15.302189 15.302018
详细信息
固有亮度:
5
最大亮度:
2.5
卫星平台:
Starlink V1.0
覆盖范围:
全球
运营商:
太空探索技术公司
运营商所在国:
美国
制造商(研发单位):
太空探索技术公司
制造商所在国:
美国
使用方式:
暂无
卫星简介
Starlink 计划是 SpaceX 推出的全球卫星互联网项目,通过发射低轨道卫星,为全球尤其是偏远地区提供高速、低延迟的互联网服务。自 2019 年起,Starlink 已部署数千颗卫星,旨在缩小全球数字鸿沟,推动互联网普及。该项目还为军事、航空等行业提供通信支持,带来广泛经济效益。
2D轨道图
3D轨道图
轨道高度分析图
轨道倾角分析图
轨道综合分析图
查看轨道综合分析图